Regional Weather Roundup
Issued by NWS Huntsville, AL

Home | Current Version | Previous Version | Text Only | Print | Product List | Glossary On
Versions: 1 2 3 4 5 6 7 8 9 10 11 12 13 14 15 16 17 18 19 20 21 22 23 24 25 26 27 28 29 30 31 32 33 34 35 36 37 38 39 40 41 42 43 44 45 46 47 48 49
000
ASUS44 KHUN 011010
RWRHUN

WEATHER ROUNDUP FOR THE TENNESSEE VALLEY
NATIONAL WEATHER SERVICE HUNTSVILLE AL
500 AM CDT WED OCT 01 2014

ALZ001>004-011100-
NORTHWEST ALABAMA

CITY           SKY/WX    TMP DP  RH WIND       PRES   REMARKS
COURTLAND HCN    N/A     61 N/A N/A CALM        N/A
RUSSELLVILLE     N/A     57 N/A N/A MISG        N/A
SHOALS AIRPORT PTCLDY    60  56  86 CALM      29.95R
SHOALS TVA RES   N/A     61 N/A N/A MISG        N/A
$$

ALZ005>007-016-011100-
NORTH CENTRAL ALABAMA

CITY           SKY/WX    TMP DP  RH WIND       PRES   REMARKS
CULLMAN AG STN   N/A     57 N/A N/A CALM        N/A
DECATUR AP     MOCLDY    60  57  89 CALM      29.94S
HUNTSVILLE AP  PTCLDY    64  60  87 CALM      29.94R
HUN NWS/UAH      N/A     64  60  87 E2          N/A
MERIDIANVILLE  CLEAR     55  52  88 CALM      29.95R FOG
VINEMONT AP    FAIR      57  56  97 CALM      29.97R FOG
$$

ALZ008>010-011100-
NORTHEAST ALABAMA

CITY           SKY/WX    TMP DP  RH WIND       PRES   REMARKS
ALBERTVILLE    CLEAR     61  61 100 CALM      29.95S
FORT PAYNE     CLEAR     55  54  94 N3        29.96S FOG
SCOTTSBORO AP  FOG       61  61 100 CALM      29.97R VSB<1/4
SCOTTSBORO HCN   N/A     61 N/A N/A MISG        N/A
VALLEY HEAD      N/A     55 N/A N/A MISG        N/A
$$

TNZ076-096-097-011100-
SOUTHEASTERN MIDDLE TENNESSEE

CITY           SKY/WX    TMP DP  RH WIND       PRES   REMARKS
FAYETTEVILLE     N/A     57  57 100 E3        29.95S
TULLAHOMA      CLEAR     55  52  88 CALM      29.97R
WINCHESTER     CLEAR     55  54  94 CALM      29.96S
$$

...SURROUNDING SITES...

CITY           SKY/WX    TMP DP  RH WIND       PRES   REMARKS
ATLANTA        PTCLDY    66  63  90 W6        29.96R
ANNISTON       CLEAR     60  58  92 CALM      29.96R
BIRMINGHAM     PTCLDY    62  59  90 CALM      29.96R
CHATTANOOGA    PTCLDY    61  58  90 CALM      29.96S FOG
CORINTH          N/A     59  57  94 CALM      29.92S
DALTON         FOG       55  55 100 CALM      29.97R VSB 1/4
GADSDEN        CLEAR     57  54  88 CALM      29.95S
GOLDEN TRNGL   CLEAR     63  57  82 CALM      29.92R
HALEYVILLE     FAIR      58  58 100 CALM      29.98R
JACKSON TN     FOG       58  56  93 CALM      29.92R VSB 1/2
LEWISBURG      FAIR      53  52  97 CALM      29.94R
MEMPHIS        PTCLDY    72  60  66 VRB3      29.90R
MURFREESBORO   FAIR      57  53  86 CALM      29.94R
NASHVILLE      PTCLDY    58  54  86 CALM      29.94R
OXFORD MS      FAIR      59  59 100 CALM      29.93S
ROME           CLEAR     58  56  93 CALM      29.95R FOG
SAVANNAH       CLEAR     57  57 100 CALM      29.93R
TUPELO         CLEAR     63  60  90 CALM      29.92R
TUSCALOOSA     CLEAR     62  59  90 CALM      29.94R
$$

...GULF COAST WEATHER...

CITY           SKY/WX    TMP DP  RH WIND       PRES   REMARKS
GULFPORT       CLEAR     71  69  93 CALM      29.89R
PASCAGOULA     CLEAR     64  63  96 CALM      29.90S FOG
MOBILE         CLEAR     65  65 100 NE3       29.92R
GULF SHORES    MOSUNNY   66  66  97 CALM      29.91R
PENSACOLA      CLOUDY    70  68  93 N5        29.90R
DESTIN         CLEAR     70  68  93 CALM      29.91R
PANAMA CITY    CLEAR     69  69 100 NE2       29.90S
APPALACHICOLA  CLEAR     72  69  90 NE3       29.89R
$$




USA.gov is the U.S. government's official web portal to all federal, state and local government web resources and services.